Tracking 25710 objects as of 5-Jul-2022
HD Live streaming from Space Station
objects crossing your sky now

STARLINK-3870

Track STARLINK-3870 now!
10-day predictions
STARLINK-3870 is classified as:


NORAD ID: 52451
Int'l Code: 2022-049A
Perigee: 544.8 km
Apogee: 546.6 km
Inclination: 53.2 °
Period: 95.4 minutes
Semi major axis: 6916 km
RCS: Unknown
Launch date: May 6, 2022
Source: United States (US)
Launch site: AIR FORCE EASTERN TEST RANGE (AFETR)
aabbcc
Your satellite tracking list
Your tracking list is empty




NASA's NSSDC Master Catalog

Two Line Element Set (TLE):
1 52451U 22049A   22185.91667824 -.00413458  00000-0 -27209-1 0  9993
2 52451  53.2173 341.5468 0001314  60.6524  32.0374 15.09224953  1306
Source of the keplerian elements: AFSPC